[[{"header":{"parameterUnit":"m.s-1","parameterCategory":2,"la1":30.2991,"la2":30.254,"lo1":-89.0895,"lo2":-89.0444,"dy":0.0017,"dx":0.0017,"nx":28,"ny":28,"refTime":"2024-10-08T03:00:00:Z","depth":"0","parameterNumber":2,"parameterNumberName":"U-component_of_CURRENTS"},"data":[0,0,0,0,0,0,0,0,0,0,0,0,0,0,0,0,0,0,0,0,0,0,0,0,0,0,0,0,0,0,0,0,0,0,0,0,0,0,0,0,0,0,0,0,0,0,0,0,0,0,0,0,0,0,0,0,0,0,-0.2351,-0.2352,0,-0.2359,-0.2359,-0.2359,-0.2324,-0.2323,-0.2322,-0.2321,-0.228,-0.2279,-0.2279,0,0,0,0,0,0,0,0,0,0,0,0,0,-0.2302,-0.2303,-0.2351,-0.2352,-0.2352,-0.2359,-0.2359,-0.2359,-0.2324,-0.2323,-0.2322,-0.2321,-0.228,-0.2279,-0.2279,0,0,0,0,0,0,0,0,0,0,0,0,0,-0.2316,-0.2303,-0.2351,-0.2337,-0.2336,-0.2359,-0.2359,-0.2359,-0.2324,-0.2323,-0.2322,-0.2321,-0.228,-0.2279,-0.2279,-0.23,0,0,-0.2277,-0.2277,0,0,0,0,0,0,0,0,-0.2315,-0.2317,-0.2339,-0.2338,-0.2337,-0.2341,-0.2326,-0.2337,-0.2324,-0.2326,-0.2321,-0.232,-0.2298,-0.2296,-0.2298,-0.2298,-0.2296,-0.2277,-0.2277,-0.2277,-0.2276,0,0,0,0,0,0,0,-0.2314,-0.2317,-0.2352,-0.2339,-0.2338,-0.2329,-0.2329,-0.2328,-0.2316,-0.2326,-0.2324,-0.2329,-0.2297,-0.2298,-0.2296,-0.2296,-0.2277,-0.2277,-0.2276,-0.2276,-0.2308,-0.2309,0,0,0,0,0,0,-0.232,-0.2316,-0.2352,-0.2353,-0.2325,-0.2331,-0.2331,-0.2339,-0.2317,-0.2314,-0.233,-0.2327,-0.23,-0.2297,-0.2295,-0.2313,-0.2277,-0.2276,-0.2276,-0.2307,-0.2308,-0.2309,0,0,0,0,0,0,-0.2319,-0.2323,-0.2352,-0.2336,-0.2339,-0.2333,-0.2342,-0.234,-0.2337,-0.2321,-0.2316,-0.2329,-0.2299,-0.2295,-0.2296,-0.2311,-0.2276,-0.2275,-0.2305,-0.2307,-0.2309,-0.2352,0,0,0,0,0,0,-0.2317,-0.2323,-0.2327,-0.2337,-0.234,-0.237,-0.2344,-0.2341,-0.2344,-0.234,-0.2319,-0.2314,-0.2297,-0.2297,-0.2296,-0.2309,-0.2275,-0.2304,-0.2306,-0.2308,-0.2349,-0.2355,-0.236,0,0,0,0,0,-0.2316,-0.233,-0.2327,-0.2331,-0.2348,-0.2371,-0.2373,-0.2362,-0.2345,-0.2353,-0.2337,-0.2315,-0.231,-0.2298,-0.2296,-0.231,-0.2303,-0.2306,-0.2308,-0.2347,-0.2354,-0.236,0,0,0,0,0,0,-0.231,-0.2328,-0.2325,-0.2344,-0.2358,-0.2366,-0.2371,-0.2366,-0.2361,-0.2352,-0.2329,-0.2324,-0.2332,-0.2319,-0.2307,-0.2327,-0.2303,-0.2306,-0.2334,-0.234,-0.2346,-0.2347,-0.2275,0,0,0,0,0,-0.2313,-0.2324,-0.2344,-0.2356,-0.2366,-0.2369,-0.2375,-0.2373,-0.2372,-0.2368,-0.2355,-0.2344,-0.2345,-0.2339,-0.2338,-0.2348,-0.2335,-0.2357,-0.2363,-0.2367,-0.2368,-0.2367,-0.2372,-0.2318,-0.2318,-0.2318,0,0,-0.2312,-0.2324,-0.2329,-0.2355,-0.2362,-0.2385,-0.2368,-0.2384,-0.2397,-0.2365,-0.2372,-0.2364,-0.2353,-0.2365,-0.2367,-0.2352,-0.2377,-0.2371,-0.2375,-0.2373,-0.237,-0.2375,-0.2379,-0.232,-0.2319,-0.2319,0,0,-0.2321,-0.233,-0.2344,-0.2364,-0.2384,-0.2393,-0.24,-0.2414,-0.2413,-0.2427,-0.2408,-0.241,-0.2407,-0.2404,-0.2402,-0.2439,-0.2409,-0.2438,-0.2461,-0.2461,-0.2465,-0.2468,-0.246,-0.2462,-0.2437,-0.2437,-0.2437,0,-0.2318,-0.2339,-0.2352,-0.2377,-0.2392,-0.24,-0.2423,-0.2435,-0.2445,-0.2449,-0.2433,-0.244,-0.2427,-0.2445,-0.2454,-0.2451,-0.244,-0.2435,-0.2467,-0.247,-0.2472,-0.2463,-0.2465,-0.244,-0.2439,-0.2439,-0.2439,0,-0.2339,-0.236,-0.2373,-0.2404,-0.2426,-0.2446,-0.2472,-0.2487,-0.2485,-0.2491,-0.2507,-0.2498,-0.2496,-0.25,-0.2484,-0.2504,-0.2487,-0.2476,-0.2447,-0.248,-0.2469,-0.247,-0.2443,-0.2442,-0.2442,-0.2441,0,0,-0.2316,-0.2375,-0.2377,-0.2395,-0.244,-0.2457,-0.2494,-0.2524,-0.2538,-0.2549,-0.2562,-0.257,-0.2557,-0.2555,-0.2542,-0.2541,-0.255,-0.2515,-0.2513,-0.2501,-0.2541,-0.2495,-0.2492,-0.254,-0.254,-0.2541,-0.2526,0,-0.2323,-0.2368,-0.2399,-0.2437,-0.2461,-0.2493,-0.2526,-0.2555,-0.2569,-0.2586,-0.2588,-0.2594,-0.2582,-0.2575,-0.2578,-0.2554,-0.2554,-0.2554,-0.2515,-0.2513,-0.2465,-0.2492,-0.2413,-0.239,-0.2526,-0.2527,-0.2527,0,-0.2326,-0.2356,-0.2395,-0.2451,-0.2464,-0.249,-0.2533,-0.2563,-0.2601,-0.2612,-0.2628,-0.2625,-0.2632,-0.2611,-0.2601,-0.2599,-0.2575,-0.2558,-0.2557,-0.2498,-0.247,-0.2379,-0.2387,-0.2379,-0.2528,-0.2528,-0.2528,0,-0.2284,-0.2349,-0.2374,-0.2394,-0.2462,-0.2481,-0.2512,-0.256,-0.2585,-0.2618,-0.2634,-0.2648,-0.2646,-0.2631,-0.2603,-0.2597,-0.2585,-0.257,-0.2512,-0.2508,-0.2425,-0.2413,-0.2413,-0.2565,-0.2565,-0.2565,-0.2565,0,-0.2271,-0.2288,-0.2354,-0.2365,-0.2391,-0.2451,-0.2481,-0.2516,-0.2571,-0.2593,-0.2632,-0.2647,-0.2649,-0.2645,-0.2615,-0.2568,-0.2595,-0.2519,-0.2504,-0.2438,-0.2428,-0.2403,-0.2409,-0.2564,-0.2564,-0.2564,-0.2565,0,-0.2209,-0.226,-0.2285,-0.2351,-0.2369,-0.2379,-0.2452,-0.2474,-0.254,-0.2569,-0.2579,-0.2641,-0.2635,-0.2637,-0.261,-0.2575,-0.249,-0.2514,-0.2436,-0.2411,-0.2334,-0.2344,-0.2277,-0.2212,-0.2439,-0.2438,-0.2437,0,-0.2179,-0.2186,-0.2245,-0.2255,-0.2278,-0.2314,-0.2339,-0.2429,-0.2459,-0.2555,-0.2557,-0.2594,-0.26,-0.257,-0.2524,-0.2475,-0.2444,-0.236,-0.2334,-0.2322,-0.2323,-0.2299,-0.2248,-0.2243,-0.2241,-0.2239,-0.2237,0,-0.2102,-0.2122,-0.214,-0.2161,-0.2183,-0.2215,-0.226,-0.229,-0.2391,-0.2436,-0.2483,-0.2505,-0.2518,-0.2453,-0.2412,-0.2357,-0.2295,-0.2315,-0.2323,-0.2187,-0.2141,-0.2072,-0.2265,-0.2219,-0.222,-0.2222,-0.2223,-0.2223,-0.2024,-0.2015,-0.2037,-0.2042,-0.207,-0.2082,-0.2072,-0.2151,-0.2188,-0.2241,-0.2343,-0.2376,-0.2376,-0.2316,-0.2267,-0.2167,-0.2174,-0.2093,-0.2112,-0.2094,-0.2014,-0.2166,-0.2091,-0.2092,-0.2093,-0.2094,-0.2095,0,-0.1912,-0.1913,-0.1918,-0.192,-0.1896,-0.1952,-0.1985,-0.1962,-0.1965,-0.209,-0.2131,-0.2221,-0.2157,-0.2162,-0.2088,-0.1998,-0.1927,-0.1939,-0.1899,-0.1859,-0.2009,-0.1985,-0.1859,-0.1859,-0.1859,-0.1859,-0.1859,-0.1859,-0.1855,-0.1811,-0.1812,-0.173,-0.1731,-0.1657,-0.1646,-0.1644,-0.1701,-0.1779,-0.1904,-0.2048,-0.2071,-0.2143,-0.2026,-0.1926,-0.1849,-0.1781,-0.1789,-0.1929,-0.1946,-0.1962,-0.194,-0.1807,-0.1807,-0.1571,-0.1569,-0.1568]},{"header":{"parameterUnit":"m.s-1","parameterCategory":2,"la1":30.2991,"la2":30.254,"lo1":-89.0895,"lo2":-89.0444,"dy":0.0017,"dx":0.0017,"nx":28,"ny":28,"refTime":"2024-10-08T03:00:00:Z","depth":"0","parameterNumber":3,"parameterNumberName":"V-component_of_CURRENTS"},"data":[0,0,0,0,0,0,0,0,0,0,0,0,0,0,0,0,0,0,0,0,0,0,0,0,0,0,0,0,0,0,0,0,0,0,0,0,0,0,0,0,0,0,0,0,0,0,0,0,0,0,0,0,0,0,0,0,0,0,-0.0394,-0.0393,0,-0.0321,-0.032,-0.0319,-0.0271,-0.027,-0.027,-0.027,-0.0178,-0.0176,-0.0174,0,0,0,0,0,0,0,0,0,0,0,0,0,-0.0448,-0.0448,-0.0394,-0.0393,-0.0393,-0.0321,-0.032,-0.0319,-0.0271,-0.027,-0.027,-0.027,-0.0179,-0.0177,-0.0174,0,0,0,0,0,0,0,0,0,0,0,0,0,-0.0404,-0.0448,-0.0394,-0.036,-0.0357,-0.0321,-0.032,-0.0319,-0.0271,-0.027,-0.027,-0.0269,-0.018,-0.0177,-0.0174,-0.0161,0,0,-0.0164,-0.0162,0,0,0,0,0,0,0,0,-0.0407,-0.0402,-0.0366,-0.0363,-0.0358,-0.0305,-0.0305,-0.0265,-0.0271,-0.0303,-0.027,-0.0269,-0.022,-0.0213,-0.02,-0.0157,-0.0153,-0.0163,-0.0161,-0.016,-0.0159,0,0,0,0,0,0,0,-0.041,-0.0405,-0.0364,-0.0365,-0.0361,-0.0334,-0.0327,-0.0297,-0.0263,-0.03,-0.0296,-0.0289,-0.0217,-0.0203,-0.0197,-0.0152,-0.0163,-0.0161,-0.0158,-0.0157,-0.0084,-0.0084,0,0,0,0,0,0,-0.0423,-0.0408,-0.0367,-0.0362,-0.0383,-0.0333,-0.0326,-0.0322,-0.0264,-0.0255,-0.029,-0.0287,-0.0209,-0.0201,-0.0194,-0.0175,-0.016,-0.0157,-0.0155,-0.0084,-0.0084,-0.0084,0,0,0,0,0,0,-0.0425,-0.042,-0.037,-0.0384,-0.0376,-0.0333,-0.0329,-0.0321,-0.0306,-0.0257,-0.0247,-0.0284,-0.0208,-0.0198,-0.0167,-0.0171,-0.0155,-0.0152,-0.0084,-0.0084,-0.0084,-0.0137,0,0,0,0,0,0,-0.0427,-0.0422,-0.0425,-0.0385,-0.0375,-0.0355,-0.0329,-0.032,-0.0303,-0.0299,-0.0248,-0.0239,-0.0207,-0.0173,-0.0164,-0.0166,-0.015,-0.0084,-0.0084,-0.0084,-0.0135,-0.0139,-0.0142,0,0,0,0,0,-0.0429,-0.0437,-0.0425,-0.042,-0.0381,-0.0355,-0.0348,-0.0316,-0.0303,-0.0301,-0.0264,-0.0241,-0.0167,-0.017,-0.016,-0.0161,-0.0084,-0.0084,-0.0084,-0.0134,-0.0138,-0.0142,0,0,0,0,0,0,-0.0461,-0.0431,-0.0418,-0.0416,-0.0391,-0.0348,-0.0343,-0.0321,-0.029,-0.0287,-0.024,-0.0228,-0.0203,-0.0175,-0.018,-0.014,-0.0122,-0.012,-0.0163,-0.0167,-0.017,-0.0182,-0.0147,0,0,0,0,0,-0.0471,-0.047,-0.0434,-0.0434,-0.0424,-0.0385,-0.0371,-0.035,-0.0317,-0.0303,-0.0266,-0.0228,-0.0196,-0.0177,-0.0145,-0.0123,-0.0091,-0.0117,-0.012,-0.0123,-0.0126,-0.0082,-0.0081,-0.0084,-0.0084,-0.0084,0,0,-0.0483,-0.0467,-0.0466,-0.0441,-0.0419,-0.0412,-0.0376,-0.0361,-0.0352,-0.0298,-0.0276,-0.024,-0.0193,-0.0168,-0.0154,-0.0144,-0.0106,-0.0123,-0.0126,-0.0127,-0.0082,-0.0081,-0.0081,-0.0084,-0.0084,-0.0084,0,0,-0.0512,-0.0494,-0.0504,-0.0487,-0.0461,-0.0435,-0.0434,-0.0394,-0.0373,-0.0348,-0.0307,-0.0272,-0.0225,-0.0189,-0.0165,-0.0168,-0.0127,-0.016,-0.0183,-0.014,-0.0139,-0.0139,-0.01,-0.0095,-0.0159,-0.0159,-0.0159,0,-0.053,-0.0536,-0.0503,-0.0507,-0.0498,-0.045,-0.0458,-0.0428,-0.0383,-0.0366,-0.035,-0.0272,-0.0234,-0.0195,-0.0196,-0.0175,-0.0146,-0.0173,-0.0145,-0.0143,-0.0142,-0.0102,-0.0096,-0.0161,-0.0161,-0.0161,-0.0161,0,-0.0564,-0.0568,-0.0573,-0.0563,-0.0547,-0.0546,-0.0504,-0.0484,-0.0453,-0.0419,-0.0375,-0.0317,-0.0271,-0.0252,-0.0224,-0.0192,-0.0174,-0.0157,-0.0138,-0.0145,-0.0102,-0.0095,-0.0165,-0.0164,-0.0163,-0.0163,0,0,-0.0605,-0.0601,-0.0602,-0.0611,-0.0579,-0.0572,-0.0553,-0.0521,-0.0508,-0.0455,-0.043,-0.0368,-0.0331,-0.0302,-0.0256,-0.0215,-0.0177,-0.0186,-0.0183,-0.0154,-0.0084,-0.004,-0.0027,-0.0156,-0.0155,-0.0154,-0.0061,0,-0.0644,-0.0675,-0.0653,-0.0674,-0.0686,-0.0638,-0.0625,-0.0586,-0.0542,-0.0503,-0.043,-0.039,-0.0351,-0.0327,-0.0281,-0.0201,-0.0161,-0.0204,-0.0077,-0.0073,-0.0037,-0.0018,0.0007,0.0095,-0.0053,-0.0052,-0.0051,0,-0.0684,-0.07,-0.0735,-0.0736,-0.0734,-0.0734,-0.0703,-0.0684,-0.0612,-0.0575,-0.0515,-0.0453,-0.0379,-0.0348,-0.0218,-0.0248,-0.0177,-0.0114,-0.0108,-0.0043,-0.0015,0.008,0.0114,0.0249,-0.004,-0.0041,-0.0041,0,-0.0738,-0.0756,-0.0788,-0.0789,-0.0779,-0.0779,-0.0766,-0.0709,-0.0693,-0.0616,-0.059,-0.0492,-0.044,-0.0337,-0.0203,-0.0212,-0.0057,-0.005,0.0058,0.0062,0.0121,0.0128,0.0297,0.0034,0.0034,0.0034,0.0034,0,-0.079,-0.0814,-0.0819,-0.0839,-0.087,-0.0836,-0.0845,-0.0811,-0.0759,-0.0739,-0.0635,-0.0591,-0.0435,-0.0323,-0.0212,-0.0046,-0.006,0.0061,0.0093,0.0103,0.0108,0.0258,0.0308,0.0037,0.0037,0.0036,0.0035,0,-0.0843,-0.0846,-0.0887,-0.0896,-0.0901,-0.0922,-0.0912,-0.0912,-0.0849,-0.0817,-0.0794,-0.066,-0.0504,-0.0338,-0.0156,-0.0053,0.0184,0.0154,0.0156,0.0187,0.0406,0.045,0.0643,0.071,0.0286,0.0288,0.0289,0,-0.0872,-0.0901,-0.094,-0.097,-0.0978,-0.0999,-0.1012,-0.0967,-0.0959,-0.0857,-0.0846,-0.0687,-0.0564,-0.0267,-0.0049,0.0175,0.0267,0.0319,0.031,0.0435,0.0508,0.0536,0.0579,0.0367,0.0369,0.0371,0.0372,0,-0.0927,-0.0941,-0.0975,-0.1043,-0.1076,-0.1106,-0.1115,-0.1124,-0.1056,-0.1006,-0.0909,-0.0799,-0.0491,-0.0213,0.0091,0.0223,0.0422,0.0359,0.0495,0.0596,0.0632,0.0705,0.0283,0.0386,0.0385,0.0384,0.0383,0.0383,-0.0959,-0.1002,-0.1051,-0.1111,-0.1154,-0.1196,-0.1218,-0.1206,-0.1183,-0.1089,-0.0973,-0.0777,-0.0358,0.0084,0.0241,0.0593,0.0557,0.0691,0.0737,0.0755,0.082,0.0429,0.0563,0.0563,0.0562,0.0562,0.0562,0,-0.0998,-0.1047,-0.1115,-0.1185,-0.1241,-0.1243,-0.1272,-0.127,-0.1243,-0.1119,-0.0993,-0.0537,-0.0118,0.0269,0.0775,0.0962,0.0987,0.1054,0.1103,0.1129,0.0799,0.0803,0.0987,0.0987,0.0987,0.0987,0.0987,0.0986,-0.102,-0.1094,-0.1132,-0.1236,-0.1284,-0.1334,-0.1347,-0.1329,-0.125,-0.1039,-0.0787,-0.0588,0.001,0.0838,0.1299,0.1333,0.1467,0.146,0.1534,0.131,0.1279,0.125,0.1268,0.1547,0.1547,0.1844,0.1847,0.185]}],[{"header":{"parameterUnit":"m.s-1","parameterCategory":2,"la1":30.2991,"la2":30.254,"lo1":-89.0895,"lo2":-89.0444,"dy":0.0017,"dx":0.0017,"nx":28,"ny":28,"refTime":"2024-10-08T03:00:00:Z","depth":"2","parameterNumber":2,"parameterNumberName":"U-component_of_CURRENTS"},"data":[0,0,0,0,0,0,0,0,0,0,0,0,0,0,0,0,0,0,0,0,0,0,0,0,0,0,0,0,0,0,0,0,0,0,0,0,0,0,0,0,0,0,0,0,0,0,0,0,0,0,0,0,0,0,0,0,0,0,-0.2258,-0.2258,0,-0.2267,-0.2267,-0.2267,-0.2237,-0.2237,-0.2236,-0.2235,-0.22,-0.22,-0.2199,0,0,0,0,0,0,0,0,0,0,0,0,0,-0.221,-0.2211,-0.2258,-0.2258,-0.2259,-0.2267,-0.2267,-0.2267,-0.2237,-0.2237,-0.2236,-0.2235,-0.22,-0.22,-0.2199,0,0,0,0,0,0,0,0,0,0,0,0,0,-0.2224,-0.2211,-0.2258,-0.2247,-0.2246,-0.2267,-0.2267,-0.2267,-0.2238,-0.2237,-0.2236,-0.2235,-0.22,-0.22,-0.2199,-0.2217,0,0,-0.2198,-0.2198,0,0,0,0,0,0,0,0,-0.2223,-0.2226,-0.2248,-0.2247,-0.2247,-0.2252,-0.2237,-0.2249,-0.2238,-0.2238,-0.2235,-0.2234,-0.2216,-0.2214,-0.2215,-0.2216,-0.2214,-0.2198,-0.2198,-0.2197,-0.2197,0,0,0,0,0,0,0,-0.2222,-0.2225,-0.2259,-0.2248,-0.2248,-0.224,-0.224,-0.2239,-0.223,-0.2238,-0.2237,-0.2242,-0.2214,-0.2216,-0.2214,-0.2214,-0.2198,-0.2198,-0.2197,-0.2197,-0.223,-0.2231,0,0,0,0,0,0,-0.2228,-0.2225,-0.2259,-0.226,-0.2235,-0.2241,-0.2242,-0.225,-0.2231,-0.2228,-0.2243,-0.224,-0.2217,-0.2215,-0.2213,-0.2234,-0.2197,-0.2197,-0.2197,-0.2229,-0.2231,-0.2232,0,0,0,0,0,0,-0.2227,-0.2231,-0.2259,-0.2244,-0.2247,-0.2244,-0.2252,-0.225,-0.225,-0.2235,-0.2231,-0.2244,-0.2216,-0.2213,-0.2216,-0.2232,-0.2197,-0.2196,-0.2228,-0.223,-0.2231,-0.2275,0,0,0,0,0,0,-0.2225,-0.223,-0.2235,-0.2244,-0.2248,-0.2277,-0.2253,-0.2251,-0.2256,-0.2253,-0.2235,-0.2231,-0.2215,-0.2217,-0.2216,-0.223,-0.2196,-0.2226,-0.2229,-0.2231,-0.2272,-0.2278,-0.2283,0,0,0,0,0,-0.2223,-0.2237,-0.2235,-0.2239,-0.2256,-0.2278,-0.228,-0.2272,-0.2257,-0.2265,-0.2252,-0.2231,-0.223,-0.2218,-0.2216,-0.2231,-0.2225,-0.2228,-0.2231,-0.2269,-0.2277,-0.2283,0,0,0,0,0,0,-0.2218,-0.2236,-0.2234,-0.2252,-0.2266,-0.2274,-0.228,-0.2277,-0.2274,-0.2266,-0.2245,-0.2241,-0.2251,-0.2239,-0.2226,-0.2248,-0.2225,-0.2227,-0.2255,-0.2262,-0.2267,-0.2268,-0.2196,0,0,0,0,0,-0.2222,-0.2232,-0.2252,-0.2264,-0.2274,-0.2277,-0.2284,-0.2283,-0.2284,-0.2281,-0.227,-0.2261,-0.2263,-0.2259,-0.2258,-0.227,-0.2256,-0.2279,-0.2285,-0.2289,-0.229,-0.2289,-0.2294,-0.224,-0.224,-0.224,0,0,-0.2221,-0.2232,-0.2237,-0.2263,-0.227,-0.2292,-0.2278,-0.2294,-0.2308,-0.2278,-0.2288,-0.2281,-0.2272,-0.2284,-0.2288,-0.2273,-0.2299,-0.2293,-0.2297,-0.2295,-0.2292,-0.2297,-0.2302,-0.2242,-0.2242,-0.2241,0,0,-0.223,-0.2239,-0.2253,-0.2272,-0.2293,-0.2302,-0.2309,-0.2324,-0.2325,-0.234,-0.2323,-0.2327,-0.2326,-0.2324,-0.2322,-0.2359,-0.2331,-0.2359,-0.2383,-0.2382,-0.2386,-0.239,-0.2382,-0.2384,-0.2359,-0.2359,-0.2359,0,-0.2227,-0.2248,-0.2261,-0.2285,-0.23,-0.2308,-0.2331,-0.2344,-0.2355,-0.2361,-0.2348,-0.2357,-0.2346,-0.2364,-0.2374,-0.2371,-0.2361,-0.2357,-0.2388,-0.2391,-0.2394,-0.2385,-0.2387,-0.2361,-0.2361,-0.2361,-0.236,0,-0.2248,-0.2268,-0.2281,-0.2311,-0.2333,-0.2353,-0.2379,-0.2396,-0.2396,-0.2403,-0.2421,-0.2413,-0.2414,-0.2418,-0.2403,-0.2424,-0.2408,-0.2397,-0.2369,-0.2402,-0.2391,-0.2392,-0.2365,-0.2364,-0.2363,-0.2362,0,0,-0.2227,-0.2283,-0.2285,-0.2303,-0.2347,-0.2364,-0.2401,-0.2431,-0.2446,-0.246,-0.2474,-0.2484,-0.2474,-0.2472,-0.2461,-0.2461,-0.247,-0.2436,-0.2435,-0.2423,-0.2463,-0.2416,-0.2413,-0.2462,-0.2462,-0.2463,-0.2448,0,-0.2234,-0.2276,-0.2307,-0.2344,-0.2367,-0.2399,-0.2432,-0.2461,-0.2477,-0.2495,-0.25,-0.2507,-0.2497,-0.2492,-0.2496,-0.2475,-0.2475,-0.2475,-0.2437,-0.2436,-0.2386,-0.2414,-0.2215,-0.2182,-0.2449,-0.2449,-0.245,0,-0.2237,-0.2265,-0.2303,-0.2358,-0.2371,-0.2397,-0.2441,-0.2471,-0.2509,-0.2522,-0.2539,-0.2538,-0.2548,-0.2528,-0.2521,-0.2519,-0.2496,-0.248,-0.2479,-0.2419,-0.2391,-0.2193,-0.2174,-0.2451,-0.2451,-0.2451,-0.2451,0,-0.2198,-0.2259,-0.2285,-0.2304,-0.237,-0.239,-0.2421,-0.2469,-0.2494,-0.253,-0.2546,-0.2562,-0.2563,-0.2549,-0.2524,-0.2518,-0.2508,-0.2494,-0.2434,-0.2431,-0.2246,-0.2225,-0.2488,-0.2488,-0.2488,-0.2488,-0.2488,0,-0.2185,-0.2202,-0.2267,-0.2278,-0.2304,-0.2363,-0.2394,-0.2429,-0.2484,-0.2505,-0.2546,-0.2561,-0.2567,-0.2564,-0.2535,-0.249,-0.2518,-0.2441,-0.2426,-0.2257,-0.2238,-0.2457,-0.2453,-0.2488,-0.2488,-0.2488,-0.2488,0,-0.2126,-0.2175,-0.2201,-0.2266,-0.2283,-0.2295,-0.2367,-0.2389,-0.2455,-0.2484,-0.2495,-0.2556,-0.2552,-0.2555,-0.2531,-0.2496,-0.246,-0.2436,-0.2238,-0.22,-0.2379,-0.2378,-0.2364,-0.2362,-0.2361,-0.236,-0.2359,0,-0.2098,-0.2106,-0.2164,-0.2174,-0.2197,-0.2235,-0.2259,-0.2347,-0.2375,-0.247,-0.2471,-0.251,-0.2511,-0.2483,-0.2419,-0.2366,-0.2424,-0.2157,-0.2114,-0.2381,-0.2367,-0.2369,-0.237,-0.1883,-0.1878,-0.1875,-0.1871,0,-0.2025,-0.2045,-0.2064,-0.2084,-0.2107,-0.2137,-0.2182,-0.221,-0.2308,-0.2349,-0.2393,-0.2411,-0.2405,-0.2268,-0.222,-0.2157,-0.2151,-0.2076,-0.239,-0.1959,-0.193,-0.1916,-0.1932,-0.1836,-0.184,-0.1842,-0.1844,-0.1846,-0.1952,-0.1944,-0.1965,-0.1971,-0.1998,-0.2008,-0.1996,-0.2067,-0.2098,-0.2124,-0.2228,-0.2193,-0.2171,-0.2008,-0.1906,-0.1822,-0.1973,-0.1859,-0.187,-0.1885,-0.1846,-0.1817,-0.1694,-0.1696,-0.1698,-0.17,-0.1702,0,-0.1843,-0.1846,-0.1851,-0.1852,-0.1827,-0.1883,-0.1912,-0.1875,-0.1865,-0.1929,-0.1945,-0.1757,-0.1681,-0.1671,-0.1498,-0.1469,-0.1434,-0.1389,-0.1332,-0.1369,-0.14,-0.1335,-0.1048,-0.1046,-0.1045,-0.1043,0,0,-0.1788,-0.1745,-0.1745,-0.1663,-0.1666,-0.159,-0.1577,-0.1546,-0.1552,-0.1504,-0.1493,-0.1612,-0.1646,-0.1355,-0.1274,-0.1141,-0.1241,-0.1077,-0.1602,-0.1572,-0.1601,-0.167,-0.1611,0,0,0,0,0]},{"header":{"parameterUnit":"m.s-1","parameterCategory":2,"la1":30.2991,"la2":30.254,"lo1":-89.0895,"lo2":-89.0444,"dy":0.0017,"dx":0.0017,"nx":28,"ny":28,"refTime":"2024-10-08T03:00:00:Z","depth":"2","parameterNumber":3,"parameterNumberName":"V-component_of_CURRENTS"},"data":[0,0,0,0,0,0,0,0,0,0,0,0,0,0,0,0,0,0,0,0,0,0,0,0,0,0,0,0,0,0,0,0,0,0,0,0,0,0,0,0,0,0,0,0,0,0,0,0,0,0,0,0,0,0,0,0,0,0,-0.0286,-0.0286,0,-0.0216,-0.0215,-0.0215,-0.0169,-0.0169,-0.0169,-0.0169,-0.0082,-0.008,-0.0078,0,0,0,0,0,0,0,0,0,0,0,0,0,-0.0337,-0.0336,-0.0286,-0.0286,-0.0285,-0.0216,-0.0215,-0.0214,-0.017,-0.0169,-0.0169,-0.0169,-0.0083,-0.008,-0.0078,0,0,0,0,0,0,0,0,0,0,0,0,0,-0.0295,-0.0336,-0.0287,-0.0255,-0.0251,-0.0217,-0.0215,-0.0214,-0.017,-0.0169,-0.0169,-0.0169,-0.0083,-0.008,-0.0077,-0.0064,0,0,-0.0067,-0.0066,0,0,0,0,0,0,0,0,-0.0297,-0.0293,-0.026,-0.0257,-0.0253,-0.0202,-0.0201,-0.0163,-0.017,-0.02,-0.0169,-0.0169,-0.0121,-0.0115,-0.0102,-0.006,-0.0056,-0.0067,-0.0065,-0.0064,-0.0063,0,0,0,0,0,0,0,-0.03,-0.0296,-0.0258,-0.0259,-0.0255,-0.0229,-0.0223,-0.0194,-0.0162,-0.0197,-0.0194,-0.0187,-0.0119,-0.0105,-0.0099,-0.0055,-0.0067,-0.0064,-0.0062,-0.0061,0.001,0.001,0,0,0,0,0,0,-0.0313,-0.0299,-0.026,-0.0256,-0.0276,-0.0228,-0.0222,-0.0218,-0.0163,-0.0154,-0.0188,-0.0186,-0.011,-0.0103,-0.0096,-0.0078,-0.0064,-0.0061,-0.0059,0.001,0.001,0.001,0,0,0,0,0,0,-0.0315,-0.0311,-0.0263,-0.0276,-0.0268,-0.0228,-0.0224,-0.0217,-0.0204,-0.0156,-0.0147,-0.0183,-0.011,-0.01,-0.0071,-0.0074,-0.0059,-0.0057,0.001,0.001,0.001,-0.004,0,0,0,0,0,0,-0.0316,-0.0312,-0.0315,-0.0277,-0.0268,-0.0249,-0.0224,-0.0216,-0.0201,-0.0197,-0.0149,-0.014,-0.0109,-0.0076,-0.0068,-0.0069,-0.0054,0.001,0.001,0.001,-0.0039,-0.0042,-0.0045,0,0,0,0,0,-0.0319,-0.0326,-0.0316,-0.0311,-0.0274,-0.0249,-0.0242,-0.0212,-0.0201,-0.0199,-0.0164,-0.0142,-0.007,-0.0073,-0.0064,-0.0064,0.001,0.001,0.001,-0.0037,-0.0041,-0.0045,0,0,0,0,0,0,-0.035,-0.0321,-0.0309,-0.0308,-0.0284,-0.0242,-0.0239,-0.0218,-0.0188,-0.0186,-0.0141,-0.013,-0.0106,-0.0078,-0.0083,-0.0044,-0.0027,-0.0025,-0.0066,-0.007,-0.0073,-0.0085,-0.0051,0,0,0,0,0,-0.036,-0.0359,-0.0325,-0.0325,-0.0316,-0.0279,-0.0266,-0.0246,-0.0214,-0.0201,-0.0166,-0.013,-0.0098,-0.008,-0.0049,-0.0027,0.0004,-0.0021,-0.0024,-0.0027,-0.003,0.0014,0.0015,0.001,0.001,0.001,0,0,-0.0372,-0.0357,-0.0356,-0.0332,-0.0311,-0.0304,-0.027,-0.0257,-0.0248,-0.0197,-0.0176,-0.0141,-0.0096,-0.0071,-0.0058,-0.0048,-0.001,-0.0027,-0.003,-0.0031,0.0014,0.0015,0.0015,0.001,0.001,0.001,0,0,-0.04,-0.0384,-0.0394,-0.0377,-0.0353,-0.0327,-0.0327,-0.0289,-0.0269,-0.0245,-0.0206,-0.0172,-0.0127,-0.009,-0.0067,-0.0069,-0.003,-0.0062,-0.0084,-0.0041,-0.004,-0.0039,-0.0002,0.0002,-0.0061,-0.0061,-0.0061,0,-0.0418,-0.0424,-0.0392,-0.0396,-0.0388,-0.0343,-0.0349,-0.0321,-0.0278,-0.0261,-0.0247,-0.0171,-0.0135,-0.0095,-0.0096,-0.0077,-0.0049,-0.0075,-0.0046,-0.0044,-0.0042,-0.0004,0.0002,-0.0063,-0.0063,-0.0063,-0.0063,0,-0.0451,-0.0455,-0.0459,-0.0449,-0.0435,-0.0434,-0.0392,-0.0373,-0.0345,-0.0311,-0.0269,-0.0213,-0.0169,-0.015,-0.0124,-0.0092,-0.0075,-0.0058,-0.0039,-0.0045,-0.0004,0.0003,-0.0067,-0.0066,-0.0065,-0.0065,0,0,-0.0491,-0.0486,-0.0487,-0.0496,-0.0464,-0.0458,-0.0439,-0.0407,-0.0395,-0.0344,-0.032,-0.0259,-0.0225,-0.0197,-0.0153,-0.0112,-0.0075,-0.0085,-0.0082,-0.0054,0.0016,0.0056,0.0068,-0.0054,-0.0053,-0.0052,0.0038,0,-0.0528,-0.0557,-0.0536,-0.0556,-0.0567,-0.052,-0.0506,-0.0469,-0.0426,-0.0389,-0.0319,-0.028,-0.0243,-0.0221,-0.0176,-0.0098,-0.0059,-0.0101,0.0023,0.0026,0.0058,0.0076,0.0059,0.014,0.0045,0.0046,0.0047,0,-0.0568,-0.0583,-0.0615,-0.0614,-0.0613,-0.0613,-0.0583,-0.0563,-0.0493,-0.0458,-0.04,-0.0341,-0.0269,-0.024,-0.0113,-0.0143,-0.0074,-0.0012,-0.0007,0.0052,0.0079,0.0133,0.0157,0.0059,0.0058,0.0057,0.0057,0,-0.0621,-0.0636,-0.0667,-0.0668,-0.0656,-0.0657,-0.0644,-0.0588,-0.0573,-0.0499,-0.0475,-0.0379,-0.0329,-0.0228,-0.01,-0.0108,0.0043,0.0051,0.0152,0.0155,0.0177,0.0181,0.0134,0.0134,0.0133,0.0133,0.0133,0,-0.0671,-0.0694,-0.0698,-0.0717,-0.0748,-0.0714,-0.0723,-0.069,-0.064,-0.062,-0.0519,-0.0477,-0.0325,-0.0217,-0.0108,0.0051,0.004,0.0155,0.0186,0.016,0.0161,0.0118,0.0115,0.0137,0.0136,0.0135,0.0135,0,-0.0723,-0.0726,-0.0765,-0.0772,-0.0778,-0.0799,-0.079,-0.079,-0.0729,-0.0698,-0.0677,-0.0547,-0.0397,-0.0235,-0.0058,0.0042,0.0189,0.0243,0.0202,0.0227,0.0271,0.0264,0.0364,0.0366,0.0368,0.037,0.0371,0,-0.0752,-0.078,-0.0818,-0.0848,-0.0856,-0.0877,-0.089,-0.0846,-0.0838,-0.0738,-0.0727,-0.0575,-0.0455,-0.0169,0.0038,0.0254,0.0242,0.0354,0.0341,0.0277,0.0297,0.0287,0.0278,0.0348,0.0349,0.035,0.0351,0,-0.0806,-0.082,-0.0853,-0.092,-0.0953,-0.0981,-0.0991,-0.0999,-0.0932,-0.0883,-0.079,-0.0682,-0.0391,-0.0142,0.0148,0.0268,0.0322,0.0379,0.0336,0.0292,0.0269,0.0286,0.0276,0.0358,0.0357,0.0357,0.0357,0.0356,-0.0839,-0.0881,-0.0929,-0.0988,-0.103,-0.107,-0.1091,-0.1075,-0.1051,-0.0948,-0.0843,-0.0646,-0.0396,0.0026,0.0224,0.0413,0.0408,0.0454,0.0448,0.0442,0.0423,0.0406,0.0517,0.0517,0.0517,0.0517,0.0517,0,-0.0876,-0.0926,-0.0992,-0.106,-0.1112,-0.1119,-0.1144,-0.1128,-0.1094,-0.0963,-0.0834,-0.0539,-0.0243,0.0013,0.0325,0.0504,0.0479,0.0524,0.0456,0.0449,0.0442,0.042,0.0514,0.0515,0.0515,0.0515,0,0,-0.0898,-0.0968,-0.1005,-0.1104,-0.1154,-0.1197,-0.121,-0.1163,-0.1071,-0.0929,-0.0769,-0.0547,-0.0231,-0.0015,0.0215,0.0373,0.0356,0.0383,0.037,0.0256,0.0246,0.0394,0.0352,0,0,0,0,0]}],[{"header":{"parameterUnit":"m.s-1","parameterCategory":2,"la1":30.2991,"la2":30.254,"lo1":-89.0895,"lo2":-89.0444,"dy":0.0017,"dx":0.0017,"nx":28,"ny":28,"refTime":"2024-10-08T03:00:00:Z","depth":"4","parameterNumber":2,"parameterNumberName":"U-component_of_CURRENTS"},"data":[0,0,0,0,0,0,0,0,0,0,0,0,0,0,0,0,0,0,0,0,0,0,0,0,0,0,0,0,0,0,0,0,0,0,0,0,0,0,0,0,0,0,0,0,0,0,0,0,0,0,0,0,0,0,0,0,0,0,-0.1581,-0.1581,0,-0.1633,-0.1634,-0.1634,-0.1666,-0.1666,-0.1666,-0.1666,-0.1711,-0.1712,-0.1712,0,0,0,0,0,0,0,0,0,0,0,0,0,-0.1505,-0.1506,-0.1581,-0.1582,-0.1582,-0.1633,-0.1634,-0.1634,-0.1666,-0.1666,-0.1666,-0.1667,-0.171,-0.1711,-0.1713,0,0,0,0,0,0,0,0,0,0,0,0,0,-0.1544,-0.1507,-0.1581,-0.1605,-0.1608,-0.1633,-0.1634,-0.1634,-0.1665,-0.1666,-0.1666,-0.1667,-0.171,-0.1711,-0.1713,-0.1713,0,0,-0.1717,-0.1718,0,0,0,0,0,0,0,0,-0.1542,-0.1547,-0.1601,-0.1604,-0.1607,-0.1645,-0.1624,-0.1661,-0.1665,-0.1642,-0.1666,-0.1667,-0.1689,-0.1692,-0.1699,-0.1715,-0.1717,-0.1717,-0.1718,-0.1718,-0.1719,0,0,0,0,0,0,0,-0.1539,-0.1545,-0.16,-0.1602,-0.1605,-0.1613,-0.1619,-0.1631,-0.1661,-0.1644,-0.1647,-0.1655,-0.169,-0.1697,-0.17,-0.1717,-0.1717,-0.1718,-0.1719,-0.172,-0.1806,-0.1808,0,0,0,0,0,0,-0.1536,-0.1542,-0.1598,-0.1602,-0.1577,-0.1614,-0.1621,-0.1631,-0.1661,-0.1667,-0.1655,-0.1656,-0.1695,-0.1698,-0.1701,-0.1768,-0.1718,-0.172,-0.1721,-0.1805,-0.1807,-0.1808,0,0,0,0,0,0,-0.1534,-0.154,-0.1596,-0.1574,-0.1582,-0.1615,-0.1626,-0.1632,-0.1665,-0.1669,-0.1675,-0.1685,-0.1695,-0.17,-0.1738,-0.1767,-0.172,-0.1722,-0.1803,-0.1805,-0.1807,-0.1859,0,0,0,0,0,0,-0.1532,-0.1539,-0.1558,-0.1574,-0.1583,-0.163,-0.1626,-0.1632,-0.1668,-0.1672,-0.1697,-0.17,-0.1696,-0.1736,-0.1739,-0.1768,-0.1723,-0.1801,-0.1804,-0.1807,-0.1856,-0.1863,-0.1869,0,0,0,0,0,-0.1529,-0.1549,-0.1559,-0.1567,-0.1604,-0.1631,-0.1637,-0.166,-0.167,-0.1691,-0.171,-0.1701,-0.1756,-0.1738,-0.1742,-0.1772,-0.18,-0.1803,-0.1807,-0.1853,-0.1861,-0.1869,0,0,0,0,0,0,-0.1528,-0.1555,-0.1566,-0.1594,-0.1621,-0.1638,-0.1663,-0.1676,-0.1708,-0.1718,-0.1719,-0.1724,-0.1768,-0.1765,-0.1745,-0.1806,-0.1777,-0.1781,-0.1811,-0.1819,-0.1826,-0.1819,-0.1724,0,0,0,0,0,-0.1536,-0.1558,-0.1583,-0.1609,-0.1625,-0.1649,-0.1668,-0.1685,-0.1708,-0.1724,-0.1743,-0.1762,-0.178,-0.1796,-0.1811,-0.1844,-0.1828,-0.1867,-0.1874,-0.1879,-0.1877,-0.188,-0.1886,-0.1819,-0.1819,-0.1819,0,0,-0.1543,-0.1561,-0.1575,-0.1611,-0.1633,-0.1663,-0.1662,-0.1701,-0.173,-0.1723,-0.1778,-0.1789,-0.1795,-0.1833,-0.1853,-0.1837,-0.1892,-0.1884,-0.1888,-0.1883,-0.1884,-0.1891,-0.1896,-0.1821,-0.1821,-0.1821,0,0,-0.1559,-0.1586,-0.1609,-0.1635,-0.1675,-0.1691,-0.1708,-0.1744,-0.177,-0.1816,-0.1819,-0.1848,-0.1883,-0.1891,-0.1897,-0.195,-0.1928,-0.1963,-0.1992,-0.1996,-0.2001,-0.2005,-0.1995,-0.1998,-0.1966,-0.1966,-0.1966,0,-0.1569,-0.1598,-0.1621,-0.1651,-0.1677,-0.1707,-0.1739,-0.1768,-0.1815,-0.1836,-0.1843,-0.1899,-0.1907,-0.1941,-0.1961,-0.1965,-0.1958,-0.196,-0.2003,-0.2007,-0.201,-0.1999,-0.2001,-0.1969,-0.1969,-0.1968,-0.1968,0,-0.1591,-0.1629,-0.1647,-0.1692,-0.1725,-0.1759,-0.1799,-0.1841,-0.1874,-0.1896,-0.1951,-0.1966,-0.1992,-0.2007,-0.2,-0.2036,-0.202,-0.201,-0.1978,-0.202,-0.2005,-0.2007,-0.1973,-0.1972,-0.1971,-0.197,0,0,-0.1573,-0.1649,-0.1658,-0.1688,-0.1751,-0.1775,-0.1835,-0.1885,-0.192,-0.1971,-0.2008,-0.2049,-0.2057,-0.2064,-0.2067,-0.2074,-0.2094,-0.2058,-0.2056,-0.204,-0.2096,-0.1962,-0.195,-0.2094,-0.2095,-0.2095,-0.2076,0,-0.1585,-0.1642,-0.168,-0.1742,-0.1773,-0.1826,-0.1874,-0.1927,-0.1969,-0.2014,-0.204,-0.2077,-0.2079,-0.2095,-0.2106,-0.2097,-0.2101,-0.21,-0.2064,-0.2062,-0.1932,-0.1949,-0.2097,-0.2077,-0.2077,-0.2077,-0.2077,0,-0.1585,-0.1625,-0.1687,-0.1765,-0.1785,-0.1831,-0.1907,-0.1953,-0.2019,-0.2052,-0.2095,-0.2112,-0.2142,-0.2131,-0.214,-0.2141,-0.2124,-0.2113,-0.2111,-0.1966,-0.1931,-0.2027,-0.208,-0.208,-0.2079,-0.2079,-0.2079,0,-0.1539,-0.1626,-0.1676,-0.1705,-0.1797,-0.1842,-0.1892,-0.1966,-0.2005,-0.2074,-0.2102,-0.2141,-0.2161,-0.2158,-0.2143,-0.2145,-0.2135,-0.213,-0.1994,-0.1985,-0.2089,-0.2084,-0.2128,-0.2128,-0.2128,-0.2128,-0.2128,0,-0.1515,-0.1558,-0.1666,-0.169,-0.1749,-0.1825,-0.1889,-0.1943,-0.2019,-0.2047,-0.2115,-0.2129,-0.217,-0.217,-0.215,-0.2067,-0.214,-0.1991,-0.1967,-0.2112,-0.211,-0.2089,-0.2085,-0.2127,-0.2128,-0.2128,-0.2128,0,-0.1447,-0.1523,-0.1582,-0.1692,-0.1728,-0.1768,-0.1877,-0.1911,-0.2,-0.2038,-0.2059,-0.2127,-0.2118,-0.2136,-0.2122,-0.2056,-0.2002,-0.1957,-0.2106,-0.2092,-0.185,-0.1849,-0.1794,-0.1789,-0.1785,-0.1781,-0.1778,0,-0.1413,-0.144,-0.1561,-0.1595,-0.1649,-0.1727,-0.1771,-0.1881,-0.191,-0.201,-0.2003,-0.2045,-0.2067,-0.194,-0.1977,-0.1921,-0.1902,-0.1862,-0.1857,-0.1831,-0.1814,-0.182,-0.1825,-0.1772,-0.1771,-0.177,-0.1768,0,-0.1336,-0.1395,-0.1443,-0.151,-0.157,-0.1624,-0.1696,-0.1706,-0.1813,-0.1917,-0.189,-0.1874,-0.1861,-0.1841,-0.1811,-0.1774,-0.1879,-0.1818,-0.1827,-0.1821,-0.1803,-0.1792,-0.1802,-0.1754,-0.1756,-0.1757,-0.1758,0,-0.1276,-0.1289,-0.1358,-0.14,-0.147,-0.1483,-0.1546,-0.1575,-0.1618,-0.1734,-0.1718,-0.1765,-0.1838,-0.1763,-0.1733,-0.1686,-0.166,-0.1602,-0.1622,-0.1638,-0.1595,-0.155,-0.1392,0,0,0,0,0,-0.1203,-0.1202,-0.1238,-0.1278,-0.1341,-0.1374,-0.1471,-0.1537,-0.1646,-0.158,-0.1646,-0.1623,-0.1582,-0.1611,-0.1526,-0.1657,-0.1665,-0.1551,-0.161,-0.1673,-0.169,-0.1652,0,0,0,0,0,0,-0.1156,-0.1184,-0.1192,-0.1155,-0.1159,-0.1209,-0.1262,-0.1347,-0.1323,-0.1441,-0.1427,-0.1516,-0.1501,-0.1599,-0.1488,-0.1495,-0.1496,-0.1592,-0.1587,-0.1664,-0.1679,-0.1692,-0.1659,0,0,0,0,0]},{"header":{"parameterUnit":"m.s-1","parameterCategory":2,"la1":30.2991,"la2":30.254,"lo1":-89.0895,"lo2":-89.0444,"dy":0.0017,"dx":0.0017,"nx":28,"ny":28,"refTime":"2024-10-08T03:00:00:Z","depth":"4","parameterNumber":3,"parameterNumberName":"V-component_of_CURRENTS"},"data":[0,0,0,0,0,0,0,0,0,0,0,0,0,0,0,0,0,0,0,0,0,0,0,0,0,0,0,0,0,0,0,0,0,0,0,0,0,0,0,0,0,0,0,0,0,0,0,0,0,0,0,0,0,0,0,0,0,0,-0.0126,-0.0126,0,-0.0083,-0.0082,-0.0082,-0.0053,-0.0052,-0.0052,-0.0052,0.0011,0.0013,0.0014,0,0,0,0,0,0,0,0,0,0,0,0,0,-0.0148,-0.0148,-0.0126,-0.0126,-0.0125,-0.0083,-0.0082,-0.0082,-0.0053,-0.0052,-0.0052,-0.0052,0.0011,0.0013,0.0015,0,0,0,0,0,0,0,0,0,0,0,0,0,-0.0124,-0.0148,-0.0126,-0.0106,-0.0104,-0.0083,-0.0082,-0.0082,-0.0053,-0.0052,-0.0052,-0.0052,0.001,0.0013,0.0015,0.0025,0,0,0.0022,0.0023,0,0,0,0,0,0,0,0,-0.0126,-0.0123,-0.0109,-0.0107,-0.0105,-0.0073,-0.0067,-0.0045,-0.0053,-0.0071,-0.0052,-0.0052,-0.0016,-0.0011,-0.0003,0.0028,0.0031,0.0022,0.0024,0.0025,0.0025,0,0,0,0,0,0,0,-0.0127,-0.0125,-0.0108,-0.0109,-0.0106,-0.0087,-0.0084,-0.0062,-0.0044,-0.007,-0.0068,-0.0064,-0.0014,-0.0005,-0.0001,0.0031,0.0022,0.0024,0.0026,0.0027,0.0078,0.0078,0,0,0,0,0,0,-0.0136,-0.0127,-0.011,-0.0107,-0.0116,-0.0087,-0.0083,-0.0083,-0.0045,-0.0039,-0.0064,-0.0063,-0.0009,-0.0004,0.0001,0.0014,0.0025,0.0027,0.0028,0.0078,0.0078,0.0078,0,0,0,0,0,0,-0.0137,-0.0135,-0.0111,-0.0116,-0.0112,-0.0087,-0.0087,-0.0083,-0.0076,-0.0041,-0.0035,-0.0063,-0.0009,-0.0002,0.0018,0.0017,0.0028,0.003,0.0078,0.0078,0.0078,0.0041,0,0,0,0,0,0,-0.0138,-0.0136,-0.0141,-0.0117,-0.0112,-0.0105,-0.0087,-0.0082,-0.0074,-0.0072,-0.0038,-0.0032,-0.0008,0.0015,0.0021,0.002,0.0032,0.0078,0.0078,0.0078,0.0042,0.004,0.0038,0,0,0,0,0,-0.0139,-0.0147,-0.0142,-0.014,-0.012,-0.0105,-0.0101,-0.0082,-0.0075,-0.0075,-0.005,-0.0033,0.0019,0.0016,0.0024,0.0024,0.0078,0.0078,0.0078,0.0043,0.004,0.0038,0,0,0,0,0,0,-0.0159,-0.0144,-0.0138,-0.0142,-0.0128,-0.0101,-0.01,-0.0087,-0.0068,-0.0067,-0.0033,-0.0025,-0.0008,0.0013,0.0009,0.0039,0.0051,0.0053,0.0022,0.002,0.0017,0.0007,0.0034,0,0,0,0,0,-0.0167,-0.0171,-0.0151,-0.0155,-0.015,-0.0127,-0.012,-0.0107,-0.0086,-0.0078,-0.0053,-0.0026,-0.0002,0.0012,0.0034,0.005,0.0076,0.0055,0.0053,0.0051,0.0048,0.0088,0.0089,0.0078,0.0078,0.0078,0,0,-0.0176,-0.017,-0.0172,-0.016,-0.0148,-0.0145,-0.0122,-0.0116,-0.0111,-0.0074,-0.0061,-0.0036,-0.0001,0.0018,0.0027,0.0035,0.0067,0.0051,0.0048,0.0047,0.0088,0.0089,0.009,0.0078,0.0078,0.0078,0,0,-0.0198,-0.0192,-0.0202,-0.0193,-0.018,-0.0164,-0.0165,-0.0142,-0.0129,-0.0114,-0.0084,-0.0059,-0.0027,0.0002,0.0021,0.0019,0.0051,0.0024,0.0007,0.0047,0.0048,0.0049,0.0079,0.0084,0.0025,0.0025,0.0025,0,-0.0211,-0.022,-0.0202,-0.0208,-0.0205,-0.0176,-0.0184,-0.0165,-0.0137,-0.0126,-0.0117,-0.0061,-0.0033,-0.0,-0.0001,0.0014,0.0037,0.0014,0.0043,0.0045,0.0047,0.0078,0.0084,0.0023,0.0024,0.0024,0.0024,0,-0.0235,-0.0244,-0.0249,-0.0248,-0.0241,-0.0244,-0.0217,-0.0207,-0.0189,-0.0165,-0.0135,-0.0092,-0.0059,-0.0043,-0.0024,0.0006,0.0018,0.0033,0.0049,0.0046,0.0079,0.0085,0.0021,0.0022,0.0022,0.0023,0,0,-0.0261,-0.0268,-0.027,-0.0281,-0.0264,-0.0264,-0.0253,-0.0233,-0.0226,-0.019,-0.0174,-0.0126,-0.0101,-0.0079,-0.0044,-0.0007,0.0027,0.0014,0.0017,0.004,0.0108,0.0106,0.0113,0.0047,0.0048,0.0049,0.0123,0,-0.0287,-0.0316,-0.0305,-0.0328,-0.0339,-0.0311,-0.0304,-0.0281,-0.0253,-0.0228,-0.0172,-0.0145,-0.0114,-0.01,-0.0058,0.0006,0.0042,0.0005,0.011,0.0113,0.0109,0.012,0.0052,0.0128,0.0129,0.013,0.0131,0,-0.0313,-0.033,-0.0362,-0.0373,-0.0375,-0.0382,-0.0368,-0.0358,-0.0308,-0.0284,-0.024,-0.0195,-0.0135,-0.0112,-0.0002,-0.0028,0.0031,0.0083,0.0088,0.0103,0.0123,0.0133,0.0143,0.0142,0.0141,0.014,0.014,0,-0.0344,-0.0368,-0.0399,-0.0403,-0.0408,-0.0416,-0.0415,-0.0379,-0.0372,-0.0319,-0.0304,-0.0224,-0.0187,-0.0098,0.0007,0.0003,0.013,0.014,0.0196,0.0196,0.0192,0.019,0.0214,0.0214,0.0214,0.0214,0.0213,0,-0.0373,-0.0398,-0.0422,-0.044,-0.0476,-0.046,-0.0479,-0.046,-0.043,-0.0418,-0.0342,-0.0309,-0.0183,-0.0094,0.0001,0.0118,0.0127,0.0194,0.0218,0.0174,0.0169,0.0196,0.0193,0.0216,0.0216,0.0215,0.0215,0,-0.0397,-0.0413,-0.0455,-0.0481,-0.0495,-0.0521,-0.0537,-0.0542,-0.0505,-0.0486,-0.0472,-0.0371,-0.0251,-0.0119,0.0033,0.0103,0.0221,0.0258,0.0198,0.0216,0.0261,0.0255,0.0325,0.0326,0.0326,0.0327,0.0327,0,-0.0409,-0.0435,-0.0494,-0.0529,-0.0548,-0.0583,-0.0604,-0.0586,-0.0584,-0.0519,-0.0509,-0.0396,-0.0313,-0.0096,0.0037,0.0223,0.0245,0.0298,0.0282,0.0258,0.0274,0.0267,0.0261,0.0328,0.0328,0.0328,0.0328,0,-0.0431,-0.0459,-0.0494,-0.0571,-0.0615,-0.0653,-0.0678,-0.0682,-0.0645,-0.0618,-0.0524,-0.0402,-0.0265,-0.0097,0.0048,0.0179,0.0261,0.0303,0.0303,0.0289,0.0262,0.0276,0.0269,0.033,0.033,0.033,0.033,0,-0.0445,-0.0481,-0.0537,-0.0598,-0.066,-0.0698,-0.0711,-0.0693,-0.068,-0.06,-0.0572,-0.041,-0.0316,-0.0119,0.0016,0.0146,0.0174,0.0204,0.0209,0.0209,0.0153,0.0101,0.0141,0,0,0,0,0,-0.0451,-0.0494,-0.0559,-0.0625,-0.0685,-0.0716,-0.0744,-0.0742,-0.071,-0.0649,-0.0605,-0.0468,-0.0251,-0.0157,-0.0026,0.0013,0.0183,0.0167,0.0218,0.034,0.0338,0.0292,0,0,0,0,0,0,-0.0458,-0.052,-0.0556,-0.0627,-0.0675,-0.0732,-0.0751,-0.0734,-0.0689,-0.064,-0.0523,-0.0446,-0.0237,-0.0322,-0.0025,0.0014,0.0061,0.0274,0.0276,0.0341,0.0339,0.0338,0.0289,0,0,0,0,0]}]]